McComb, MS

8:47 AM CDT on April 20, 2018 (GMT -0500)
McComb-Pike County-Lewis

Weather History for KMCB - March, 2012

Change the Weather History Date:

Tuesday, March 6, 2012

  Actual Average Record
Temperature  
Mean Temperature 60 °F -  
Max Temperature 72 °F 66 °F 82 °F (1956)
Min Temperature 48 °F 41 °F 24 °F (1960)
Degree Days  
Heating Degree Days 5    
Growing Degree Days 10 (Base 50)    
Moisture  
Dew Point 41 °F    
Average Humidity 52    
Maximum Humidity 87    
Minimum Humidity 35    
Precipitation  
Precipitation 0.00 in - - ()
Sea Level Pressure  
Sea Level Pressure 30.33 in    
Wind  
Wind Speed 7 mph (SE)    
Max Wind Speed 15 mph    
Max Gust Speed 22 mph    
Visibility 10 miles    
Events      
Averages and records for this station are not official NWS values.
T = Trace of Precipitation, MM = Missing Value Source: NWS Daily Summary

Daily Weather History Graph

Daily Weather History Graph

Search for Another Location

Airport or City:

Astronomy

Mar. 06, 2012 Rise Set
Actual Time 6:22 AM CST 6:04 PM CST
Civil Twilight 5:57 AM CST 6:28 PM CST
Nautical Twilight 5:29 AM CST 6:56 PM CST
Astronomical Twilight 5:01 AM CST 7:24 PM CST
Moon 4:34 PM CST (3/6) 4:52 AM CST (3/6)
Length of Visible Light 12h 30m
Length of Day
11h 41m
Waxing Gibbous, 96% of the Moon is Illuminated
Mar 6
Waxing Gibbous
Mar 8
Full
Mar 14
Last Quarter
Mar 22
New
Mar 30
First Quarter

Hourly Weather History & Observations

Time (CST) Temp. Dew Point Humidity Pressure Visibility Wind Dir Wind Speed Gust Speed Precip Events Conditions
12:53 AM 53.1 °F 37.0 °F 55% 30.36 in 10.0 mi SSE 4.6 mph - N/A   Clear
2:53 AM 51.1 °F 35.1 °F 54% 30.34 in 10.0 mi East 3.5 mph - N/A   Clear
3:53 AM 50.0 °F 33.1 °F 52% 30.34 in 10.0 mi East 3.5 mph - N/A   Clear
4:53 AM 48.9 °F 30.9 °F 50% 30.35 in 10.0 mi Calm Calm - N/A   Clear
5:53 AM 48.9 °F 30.0 °F 48% 30.36 in 10.0 mi ESE 4.6 mph - N/A   Clear
6:53 AM 48.9 °F 30.0 °F 48% 30.36 in 10.0 mi ESE 3.5 mph - N/A   Clear
8:53 AM 59.0 °F 36.0 °F 42% 30.39 in 10.0 mi SE 11.5 mph 18.4 mph N/A   Clear
9:53 AM 64.0 °F 39.9 °F 41% 30.39 in 10.0 mi SSE 15.0 mph 19.6 mph N/A   Clear
10:53 AM 66.9 °F 41.0 °F 39% 30.39 in 10.0 mi South 10.4 mph - N/A   Clear
11:53 AM 68.0 °F 42.1 °F 39% 30.37 in 10.0 mi SE 8.1 mph 16.1 mph N/A   Clear
12:53 PM 72.0 °F 43.0 °F 35% 30.34 in 10.0 mi SSE 10.4 mph 21.9 mph N/A   Clear
1:53 PM 71.1 °F 44.1 °F 38% 30.30 in 10.0 mi SSE 11.5 mph 18.4 mph N/A   Scattered Clouds
2:53 PM 72.0 °F 43.0 °F 35% 30.29 in 10.0 mi SSW 12.7 mph 21.9 mph N/A   Clear
3:53 PM 70.0 °F 41.0 °F 35% 30.29 in 10.0 mi SSE 13.8 mph 21.9 mph N/A   Clear
5:53 PM 64.9 °F 44.1 °F 47% 30.27 in 10.0 mi SSE 10.4 mph - N/A   Clear
6:53 PM 62.1 °F 45.0 °F 53% 30.28 in 10.0 mi SSE 6.9 mph - N/A   Clear
8:53 PM 59.0 °F 52.0 °F 78% 30.31 in 10.0 mi SSE 6.9 mph - N/A   Clear
9:53 PM 57.9 °F 53.1 °F 84% 30.30 in 7.0 mi SE 6.9 mph - N/A   Clear
10:53 PM 57.0 °F 53.1 °F 87% 30.28 in 8.0 mi SE 8.1 mph - N/A   Clear
11:53 PM 57.9 °F 54.0 °F 87% 30.27 in 8.0 mi SE 8.1 mph - N/A   Clear